Date_Time,Julian_Date,Latitude,Longitude,Instrument_Depth,U,V,Speed,Direction
(yyyy-mm-dd hh:mn:ss UTC),(JD),(+ deg. North),(+ deg. East),(m),(cm/s),(cm/s),(cm/s),(deg True)
1982-09-15 18:00:00 UTC,2445228.250000,28.7317,-95.2428,0201,-8.79,6.62,11.0000,307.0000
1982-09-15 18:30:00 UTC,2445228.270833,28.7317,-95.2428,0201,-7.28,5.29,9.0000,306.0000
1982-09-15 19:00:00 UTC,2445228.291667,28.7317,-95.2428,0201,-6.47,4.70,8.0000,306.0000
1982-09-15 19:30:00 UTC,2445228.312500,28.7317,-95.2428,0201,-6.93,4.00,8.0000,300.0000
1982-09-15 20:00:00 UTC,2445228.333333,28.7317,-95.2428,0201,-6.34,2.96,7.0000,295.0000
1982-09-15 20:30:00 UTC,2445228.354167,28.7317,-95.2428,0201,-4.64,1.87,5.0000,292.0000
1982-09-15 21:00:00 UTC,2445228.375000,28.7317,-95.2428,0201,-4.83,1.29,5.0000,285.0000
1982-09-15 21:30:00 UTC,2445228.395833,28.7317,-95.2428,0201,-4.96,0.61,5.0000,277.0000
1982-09-15 22:00:00 UTC,2445228.416667,28.7317,-95.2428,0201,-5.96,-0.73,6.0000,263.0000
1982-09-15 22:30:00 UTC,2445228.437500,28.7317,-95.2428,0201,-6.58,-2.39,7.0000,250.0000
1982-09-15 23:00:00 UTC,2445228.458333,28.7317,-95.2428,0201,-6.29,-3.07,7.0000,244.0000
1982-09-15 23:30:00 UTC,2445228.479167,28.7317,-95.2428,0201,-6.00,-3.61,7.0000,239.0000
1982-09-16 00:00:00 UTC,2445228.500000,28.7317,-95.2428,0201,-4.46,-4.01,6.0000,228.0000
1982-09-16 00:30:00 UTC,2445228.520833,28.7317,-95.2428,0201,-3.28,-3.77,5.0000,221.0000
1982-09-16 01:00:00 UTC,2445228.541667,28.7317,-95.2428,0201,-3.60,-3.47,5.0000,226.0000
1982-09-16 01:30:00 UTC,2445228.562500,28.7317,-95.2428,0201,-4.05,-2.94,5.0000,234.0000
1982-09-16 02:00:00 UTC,2445228.583333,28.7317,-95.2428,0201,-2.62,-1.45,3.0000,241.0000
1982-09-16 02:30:00 UTC,2445228.604167,28.7317,-95.2428,0201,-1.96,-0.42,2.0000,258.0000
1982-09-16 03:00:00 UTC,2445228.625000,28.7317,-95.2428,0201,-2.43,1.76,3.0000,306.0000
1982-09-16 03:30:00 UTC,2445228.645833,28.7317,-95.2428,0201,-2.94,4.05,5.0000,324.0000
1982-09-16 04:00:00 UTC,2445228.666667,28.7317,-95.2428,0201,-2.15,5.60,6.0000,339.0000
1982-09-16 04:30:00 UTC,2445228.687500,28.7317,-95.2428,0201,-0.73,5.96,6.0000,353.0000
1982-09-16 05:00:00 UTC,2445228.708333,28.7317,-95.2428,0201,0.42,7.99,8.0000,3.0000
1982-09-16 05:30:00 UTC,2445228.729167,28.7317,-95.2428,0201,1.25,8.91,9.0000,8.0000
1982-09-16 06:00:00 UTC,2445228.750000,28.7317,-95.2428,0201,2.48,8.65,9.0000,16.0000
1982-09-16 06:30:00 UTC,2445228.770833,28.7317,-95.2428,0201,2.87,7.47,8.0000,21.0000
1982-09-16 07:00:00 UTC,2445228.791667,28.7317,-95.2428,0201,2.85,6.39,7.0000,24.0000
1982-09-16 07:30:00 UTC,2445228.812500,28.7317,-95.2428,0201,3.09,5.14,6.0000,31.0000
1982-09-16 08:00:00 UTC,2445228.833333,28.7317,-95.2428,0201,3.61,4.79,6.0000,37.0000
1982-09-16 08:30:00 UTC,2445228.854167,28.7317,-95.2428,0201,3.44,4.91,6.0000,35.0000
1982-09-16 09:00:00 UTC,2445228.875000,28.7317,-95.2428,0201,3.08,3.94,5.0000,38.0000
1982-09-16 09:30:00 UTC,2445228.895833,28.7317,-95.2428,0201,3.28,3.77,5.0000,41.0000
1982-09-16 10:00:00 UTC,2445228.916667,28.7317,-95.2428,0201,2.52,3.11,4.0000,39.0000
1982-09-16 10:30:00 UTC,2445228.937500,28.7317,-95.2428,0201,2.57,3.06,4.0000,40.0000
1982-09-16 11:00:00 UTC,2445228.958333,28.7317,-95.2428,0201,2.68,2.97,4.0000,42.0000
1982-09-16 11:30:00 UTC,2445228.979167,28.7317,-95.2428,0201,2.73,2.93,4.0000,43.0000
1982-09-16 12:00:00 UTC,2445229.000000,28.7317,-95.2428,0201,3.19,2.41,4.0000,53.0000
1982-09-16 12:30:00 UTC,2445229.020833,28.7317,-95.2428,0201,4.33,2.50,5.0000,60.0000
1982-09-16 13:00:00 UTC,2445229.041667,28.7317,-95.2428,0201,5.09,3.18,6.0000,58.0000
1982-09-16 13:30:00 UTC,2445229.062500,28.7317,-95.2428,0201,5.03,3.27,6.0000,57.0000
1982-09-16 14:00:00 UTC,2445229.083333,28.7317,-95.2428,0201,5.73,4.02,7.0000,55.0000
1982-09-16 14:30:00 UTC,2445229.104167,28.7317,-95.2428,0201,5.95,5.35,8.0000,48.0000
1982-09-16 15:00:00 UTC,2445229.125000,28.7317,-95.2428,0201,7.07,7.07,10.0000,45.0000
1982-09-16 15:30:00 UTC,2445229.145833,28.7317,-95.2428,0201,8.70,9.66,13.0000,42.0000
1982-09-16 16:00:00 UTC,2445229.166667,28.7317,-95.2428,0201,9.03,11.98,15.0000,37.0000
1982-09-16 16:30:00 UTC,2445229.187500,28.7317,-95.2428,0201,8.95,13.26,16.0000,34.0000
1982-09-16 17:00:00 UTC,2445229.208333,28.7317,-95.2428,0201,8.95,13.26,16.0000,34.0000
1982-09-16 17:30:00 UTC,2445229.229167,28.7317,-95.2428,0201,9.75,13.93,17.0000,35.0000
1982-09-16 18:00:00 UTC,2445229.250000,28.7317,-95.2428,0201,11.08,14.18,18.0000,38.0000
1982-09-16 18:30:00 UTC,2445229.270833,28.7317,-95.2428,0201,11.81,13.58,18.0000,41.0000
1982-09-16 19:00:00 UTC,2445229.291667,28.7317,-95.2428,0201,12.04,13.38,18.0000,42.0000
1982-09-16 19:30:00 UTC,2445229.312500,28.7317,-95.2428,0201,11.81,13.58,18.0000,41.0000
1982-09-16 20:00:00 UTC,2445229.333333,28.7317,-95.2428,0201,10.93,13.02,17.0000,40.0000
1982-09-16 20:30:00 UTC,2445229.354167,28.7317,-95.2428,0201,9.64,11.49,15.0000,40.0000
1982-09-16 21:00:00 UTC,2445229.375000,28.7317,-95.2428,0201,8.78,8.18,12.0000,47.0000
1982-09-16 21:30:00 UTC,2445229.395833,28.7317,-95.2428,0201,8.48,5.30,10.0000,58.0000
1982-09-16 22:00:00 UTC,2445229.416667,28.7317,-95.2428,0201,7.42,3.00,8.0000,68.0000
1982-09-16 22:30:00 UTC,2445229.437500,28.7317,-95.2428,0201,5.74,1.75,6.0000,73.0000
1982-09-16 23:00:00 UTC,2445229.458333,28.7317,-95.2428,0201,4.46,2.27,5.0000,63.0000
1982-09-16 23:30:00 UTC,2445229.479167,28.7317,-95.2428,0201,2.35,3.24,4.0000,36.0000
1982-09-17 00:00:00 UTC,2445229.500000,28.7317,-95.2428,0201,1.38,4.81,5.0000,16.0000
1982-09-17 00:30:00 UTC,2445229.520833,28.7317,-95.2428,0201,1.10,6.91,7.0000,9.0000
1982-09-17 01:00:00 UTC,2445229.541667,28.7317,-95.2428,0201,1.25,7.90,8.0000,9.0000
1982-09-17 01:30:00 UTC,2445229.562500,28.7317,-95.2428,0201,1.72,8.83,9.0000,11.0000
1982-09-17 02:00:00 UTC,2445229.583333,28.7317,-95.2428,0201,2.08,9.78,10.0000,12.0000
1982-09-17 02:30:00 UTC,2445229.604167,28.7317,-95.2428,0201,2.66,10.67,11.0000,14.0000
1982-09-17 03:00:00 UTC,2445229.625000,28.7317,-95.2428,0201,3.11,11.59,12.0000,15.0000
1982-09-17 03:30:00 UTC,2445229.645833,28.7317,-95.2428,0201,3.80,12.43,13.0000,17.0000
1982-09-17 04:00:00 UTC,2445229.666667,28.7317,-95.2428,0201,3.58,12.50,13.0000,16.0000
1982-09-17 04:30:00 UTC,2445229.687500,28.7317,-95.2428,0201,2.03,12.84,13.0000,9.0000
1982-09-17 05:00:00 UTC,2445229.708333,28.7317,-95.2428,0201,0.91,12.97,13.0000,4.0000
1982-09-17 05:30:00 UTC,2445229.729167,28.7317,-95.2428,0201,2.26,12.80,13.0000,10.0000
1982-09-17 06:00:00 UTC,2445229.750000,28.7317,-95.2428,0201,4.09,13.39,14.0000,17.0000
1982-09-17 06:30:00 UTC,2445229.770833,28.7317,-95.2428,0201,3.88,14.49,15.0000,15.0000
1982-09-17 07:00:00 UTC,2445229.791667,28.7317,-95.2428,0201,3.53,16.63,17.0000,12.0000
1982-09-17 07:30:00 UTC,2445229.812500,28.7317,-95.2428,0201,3.87,15.52,16.0000,14.0000
1982-09-17 08:00:00 UTC,2445229.833333,28.7317,-95.2428,0201,3.15,13.64,14.0000,13.0000
1982-09-17 08:30:00 UTC,2445229.854167,28.7317,-95.2428,0201,3.36,12.56,13.0000,15.0000
1982-09-17 09:00:00 UTC,2445229.875000,28.7317,-95.2428,0201,5.26,10.79,12.0000,26.0000
1982-09-17 09:30:00 UTC,2445229.895833,28.7317,-95.2428,0201,7.07,8.43,11.0000,40.0000
1982-09-17 10:00:00 UTC,2445229.916667,28.7317,-95.2428,0201,7.77,6.29,10.0000,51.0000
1982-09-17 10:30:00 UTC,2445229.937500,28.7317,-95.2428,0201,6.93,4.00,8.0000,60.0000
1982-09-17 11:00:00 UTC,2445229.958333,28.7317,-95.2428,0201,4.67,1.79,5.0000,69.0000
1982-09-17 11:30:00 UTC,2445229.979167,28.7317,-95.2428,0201,1.93,0.52,2.0000,75.0000
1982-09-17 12:00:00 UTC,2445230.000000,28.7317,-95.2428,0201,1.00,0.03,1.0000,88.0000
1982-09-17 12:30:00 UTC,2445230.020833,28.7317,-95.2428,0201,0.00,-0.00,0.0000,104.0000
1982-09-17 13:00:00 UTC,2445230.041667,28.7317,-95.2428,0201,0.00,-0.00,0.0000,103.0000
1982-09-17 13:30:00 UTC,2445230.062500,28.7317,-95.2428,0201,-0.00,0.00,0.0000,274.0000
1982-09-17 14:00:00 UTC,2445230.083333,28.7317,-95.2428,0201,-0.00,-0.00,0.0000,195.0000
1982-09-17 14:30:00 UTC,2445230.104167,28.7317,-95.2428,0201,0.00,0.00,0.0000,31.0000
1982-09-17 15:00:00 UTC,2445230.125000,28.7317,-95.2428,0201,0.78,1.84,2.0000,23.0000
1982-09-17 15:30:00 UTC,2445230.145833,28.7317,-95.2428,0201,1.37,3.76,4.0000,20.0000
1982-09-17 16:00:00 UTC,2445230.166667,28.7317,-95.2428,0201,1.95,5.67,6.0000,19.0000
1982-09-17 16:30:00 UTC,2445230.187500,28.7317,-95.2428,0201,2.62,6.49,7.0000,22.0000
1982-09-17 17:00:00 UTC,2445230.208333,28.7317,-95.2428,0201,4.12,6.86,8.0000,31.0000
1982-09-17 17:30:00 UTC,2445230.229167,28.7317,-95.2428,0201,5.42,7.19,9.0000,37.0000
1982-09-17 18:00:00 UTC,2445230.250000,28.7317,-95.2428,0201,5.79,6.89,9.0000,40.0000
1982-09-17 18:30:00 UTC,2445230.270833,28.7317,-95.2428,0201,6.95,7.19,10.0000,44.0000
1982-09-17 19:00:00 UTC,2445230.291667,28.7317,-95.2428,0201,8.30,7.22,11.0000,49.0000
1982-09-17 19:30:00 UTC,2445230.312500,28.7317,-95.2428,0201,9.46,7.39,12.0000,52.0000
1982-09-17 20:00:00 UTC,2445230.333333,28.7317,-95.2428,0201,9.12,6.15,11.0000,56.0000
1982-09-17 20:30:00 UTC,2445230.354167,28.7317,-95.2428,0201,9.53,5.50,11.0000,60.0000
1982-09-17 21:00:00 UTC,2445230.375000,28.7317,-95.2428,0201,8.16,3.80,9.0000,65.0000
1982-09-17 21:30:00 UTC,2445230.395833,28.7317,-95.2428,0201,6.66,2.16,7.0000,72.0000
1982-09-17 22:00:00 UTC,2445230.416667,28.7317,-95.2428,0201,3.93,0.76,4.0000,79.0000
1982-09-17 22:30:00 UTC,2445230.437500,28.7317,-95.2428,0201,1.95,0.45,2.0000,77.0000
1982-09-17 23:00:00 UTC,2445230.458333,28.7317,-95.2428,0201,0.97,0.24,1.0000,76.0000
1982-09-17 23:30:00 UTC,2445230.479167,28.7317,-95.2428,0201,1.00,-0.07,1.0000,94.0000
1982-09-18 00:00:00 UTC,2445230.500000,28.7317,-95.2428,0201,0.00,-0.00,0.0000,101.0000
1982-09-18 00:30:00 UTC,2445230.520833,28.7317,-95.2428,0201,-0.00,0.00,0.0000,279.0000
1982-09-18 01:00:00 UTC,2445230.541667,28.7317,-95.2428,0201,0.00,0.00,0.0000,0.0000
1982-09-18 01:30:00 UTC,2445230.562500,28.7317,-95.2428,0201,0.00,-0.00,0.0000,179.0000
1982-09-18 02:00:00 UTC,2445230.583333,28.7317,-95.2428,0201,-0.00,-0.00,0.0000,192.0000
1982-09-18 02:30:00 UTC,2445230.604167,28.7317,-95.2428,0201,0.00,0.00,0.0000,5.0000
1982-09-18 03:00:00 UTC,2445230.625000,28.7317,-95.2428,0201,0.31,1.98,2.0000,9.0000
1982-09-18 03:30:00 UTC,2445230.645833,28.7317,-95.2428,0201,0.69,3.94,4.0000,10.0000
1982-09-18 04:00:00 UTC,2445230.666667,28.7317,-95.2428,0201,0.87,4.92,5.0000,10.0000
1982-09-18 04:30:00 UTC,2445230.687500,28.7317,-95.2428,0201,0.97,6.93,7.0000,8.0000
1982-09-18 05:00:00 UTC,2445230.708333,28.7317,-95.2428,0201,0.84,7.96,8.0000,6.0000
1982-09-18 05:30:00 UTC,2445230.729167,28.7317,-95.2428,0201,0.70,9.98,10.0000,4.0000
1982-09-18 06:00:00 UTC,2445230.750000,28.7317,-95.2428,0201,0.58,10.98,11.0000,3.0000
1982-09-18 06:30:00 UTC,2445230.770833,28.7317,-95.2428,0201,0.91,12.97,13.0000,4.0000
1982-09-18 07:00:00 UTC,2445230.791667,28.7317,-95.2428,0201,1.71,13.90,14.0000,7.0000
1982-09-18 07:30:00 UTC,2445230.812500,28.7317,-95.2428,0201,2.48,12.76,13.0000,11.0000
1982-09-18 08:00:00 UTC,2445230.833333,28.7317,-95.2428,0201,1.88,11.85,12.0000,9.0000
1982-09-18 08:30:00 UTC,2445230.854167,28.7317,-95.2428,0201,0.42,11.99,12.0000,2.0000
1982-09-18 09:00:00 UTC,2445230.875000,28.7317,-95.2428,0201,-0.96,10.96,11.0000,355.0000
1982-09-18 09:30:00 UTC,2445230.895833,28.7317,-95.2428,0201,-3.03,10.57,11.0000,344.0000
1982-09-18 10:00:00 UTC,2445230.916667,28.7317,-95.2428,0201,-3.58,10.40,11.0000,341.0000
1982-09-18 10:30:00 UTC,2445230.937500,28.7317,-95.2428,0201,-0.94,8.95,9.0000,354.0000
1982-09-18 11:00:00 UTC,2445230.958333,28.7317,-95.2428,0201,1.25,8.91,9.0000,8.0000
1982-09-18 11:30:00 UTC,2445230.979167,28.7317,-95.2428,0201,1.72,8.83,9.0000,11.0000
1982-09-18 12:00:00 UTC,2445231.000000,28.7317,-95.2428,0201,1.53,7.85,8.0000,11.0000
1982-09-18 12:30:00 UTC,2445231.020833,28.7317,-95.2428,0201,2.62,6.49,7.0000,22.0000
1982-09-18 13:00:00 UTC,2445231.041667,28.7317,-95.2428,0201,3.94,4.53,6.0000,41.0000
1982-09-18 13:30:00 UTC,2445231.062500,28.7317,-95.2428,0201,4.91,3.44,6.0000,55.0000
1982-09-18 14:00:00 UTC,2445231.083333,28.7317,-95.2428,0201,4.33,2.50,5.0000,60.0000
1982-09-18 14:30:00 UTC,2445231.104167,28.7317,-95.2428,0201,4.24,2.65,5.0000,58.0000
1982-09-18 15:00:00 UTC,2445231.125000,28.7317,-95.2428,0201,5.03,3.27,6.0000,57.0000
1982-09-18 15:30:00 UTC,2445231.145833,28.7317,-95.2428,0201,5.80,3.91,7.0000,56.0000
1982-09-18 16:00:00 UTC,2445231.166667,28.7317,-95.2428,0201,5.73,4.02,7.0000,55.0000
1982-09-18 16:30:00 UTC,2445231.187500,28.7317,-95.2428,0201,5.52,4.31,7.0000,52.0000
1982-09-18 17:00:00 UTC,2445231.208333,28.7317,-95.2428,0201,5.20,4.68,7.0000,48.0000
1982-09-18 17:30:00 UTC,2445231.229167,28.7317,-95.2428,0201,4.86,5.04,7.0000,44.0000
1982-09-18 18:00:00 UTC,2445231.250000,28.7317,-95.2428,0201,4.95,4.95,7.0000,45.0000
1982-09-18 18:30:00 UTC,2445231.270833,28.7317,-95.2428,0201,5.04,4.86,7.0000,46.0000
1982-09-18 19:00:00 UTC,2445231.291667,28.7317,-95.2428,0201,3.78,4.66,6.0000,39.0000
1982-09-18 19:30:00 UTC,2445231.312500,28.7317,-95.2428,0201,3.00,5.20,6.0000,30.0000
1982-09-18 20:00:00 UTC,2445231.333333,28.7317,-95.2428,0201,2.03,4.57,5.0000,24.0000
1982-09-18 20:30:00 UTC,2445231.354167,28.7317,-95.2428,0201,1.46,4.78,5.0000,17.0000
1982-09-18 21:00:00 UTC,2445231.375000,28.7317,-95.2428,0201,0.21,3.99,4.0000,3.0000
1982-09-18 21:30:00 UTC,2445231.395833,28.7317,-95.2428,0201,-0.57,2.94,3.0000,349.0000
1982-09-18 22:00:00 UTC,2445231.416667,28.7317,-95.2428,0201,-0.78,1.84,2.0000,337.0000
1982-09-18 22:30:00 UTC,2445231.437500,28.7317,-95.2428,0201,-0.60,0.80,1.0000,323.0000
1982-09-18 23:00:00 UTC,2445231.458333,28.7317,-95.2428,0201,-0.00,-0.00,0.0000,263.0000
1982-09-18 23:30:00 UTC,2445231.479167,28.7317,-95.2428,0201,-1.96,-0.38,2.0000,259.0000
1982-09-19 00:00:00 UTC,2445231.500000,28.7317,-95.2428,0201,-3.95,-0.63,4.0000,261.0000
1982-09-19 00:30:00 UTC,2445231.520833,28.7317,-95.2428,0201,-4.89,-1.04,5.0000,258.0000
1982-09-19 01:00:00 UTC,2445231.541667,28.7317,-95.2428,0201,-3.80,-1.24,4.0000,252.0000
1982-09-19 01:30:00 UTC,2445231.562500,28.7317,-95.2428,0201,-2.88,-0.83,3.0000,254.0000
1982-09-19 02:00:00 UTC,2445231.583333,28.7317,-95.2428,0201,-3.00,0.05,3.0000,271.0000
1982-09-19 02:30:00 UTC,2445231.604167,28.7317,-95.2428,0201,-2.82,1.03,3.0000,290.0000
1982-09-19 03:00:00 UTC,2445231.625000,28.7317,-95.2428,0201,-2.67,1.36,3.0000,297.0000
1982-09-19 03:30:00 UTC,2445231.645833,28.7317,-95.2428,0201,-3.46,2.00,4.0000,300.0000
1982-09-19 04:00:00 UTC,2445231.666667,28.7317,-95.2428,0201,-4.33,2.50,5.0000,300.0000
1982-09-19 04:30:00 UTC,2445231.687500,28.7317,-95.2428,0201,-7.63,4.77,9.0000,302.0000
1982-09-19 05:00:00 UTC,2445231.708333,28.7317,-95.2428,0201,-10.38,7.82,13.0000,307.0000
1982-09-19 05:30:00 UTC,2445231.729167,28.7317,-95.2428,0201,-12.08,10.50,16.0000,311.0000
1982-09-19 06:00:00 UTC,2445231.750000,28.7317,-95.2428,0201,-12.50,12.95,18.0000,316.0000
1982-09-19 06:30:00 UTC,2445231.770833,28.7317,-95.2428,0201,-12.93,16.55,21.0000,322.0000
1982-09-19 07:00:00 UTC,2445231.791667,28.7317,-95.2428,0201,-12.53,19.29,23.0000,327.0000
1982-09-19 07:30:00 UTC,2445231.812500,28.7317,-95.2428,0201,-12.88,21.43,25.0000,329.0000
1982-09-19 08:00:00 UTC,2445231.833333,28.7317,-95.2428,0201,-12.00,20.78,24.0000,330.0000
1982-09-19 08:30:00 UTC,2445231.854167,28.7317,-95.2428,0201,-9.99,19.60,22.0000,333.0000
1982-09-19 09:00:00 UTC,2445231.875000,28.7317,-95.2428,0201,-8.13,18.27,20.0000,336.0000
1982-09-19 09:30:00 UTC,2445231.895833,28.7317,-95.2428,0201,-8.13,18.27,20.0000,336.0000
1982-09-19 10:00:00 UTC,2445231.916667,28.7317,-95.2428,0201,-7.89,16.18,18.0000,334.0000
1982-09-19 10:30:00 UTC,2445231.937500,28.7317,-95.2428,0201,-6.81,13.37,15.0000,333.0000
1982-09-19 11:00:00 UTC,2445231.958333,28.7317,-95.2428,0201,-5.69,12.79,14.0000,336.0000
1982-09-19 11:30:00 UTC,2445231.979167,28.7317,-95.2428,0201,-3.36,12.56,13.0000,345.0000
1982-09-19 12:00:00 UTC,2445232.000000,28.7317,-95.2428,0201,-1.67,11.88,12.0000,352.0000
1982-09-19 12:30:00 UTC,2445232.020833,28.7317,-95.2428,0201,0.19,11.00,11.0000,1.0000
1982-09-19 13:00:00 UTC,2445232.041667,28.7317,-95.2428,0201,3.76,10.34,11.0000,20.0000
1982-09-19 13:30:00 UTC,2445232.062500,28.7317,-95.2428,0201,7.05,9.71,12.0000,36.0000
1982-09-19 14:00:00 UTC,2445232.083333,28.7317,-95.2428,0201,7.87,9.06,12.0000,41.0000
1982-09-19 14:30:00 UTC,2445232.104167,28.7317,-95.2428,0201,8.04,7.50,11.0000,47.0000
1982-09-19 15:00:00 UTC,2445232.125000,28.7317,-95.2428,0201,9.83,6.88,12.0000,55.0000
1982-09-19 15:30:00 UTC,2445232.145833,28.7317,-95.2428,0201,11.26,6.50,13.0000,60.0000
1982-09-19 16:00:00 UTC,2445232.166667,28.7317,-95.2428,0201,12.58,6.14,14.0000,64.0000
1982-09-19 16:30:00 UTC,2445232.187500,28.7317,-95.2428,0201,13.81,5.86,15.0000,67.0000
1982-09-19 17:00:00 UTC,2445232.208333,28.7317,-95.2428,0201,15.13,5.21,16.0000,71.0000
1982-09-19 17:30:00 UTC,2445232.229167,28.7317,-95.2428,0201,16.26,4.97,17.0000,73.0000
1982-09-19 18:00:00 UTC,2445232.250000,28.7317,-95.2428,0201,17.96,6.19,19.0000,71.0000
1982-09-19 18:30:00 UTC,2445232.270833,28.7317,-95.2428,0201,19.33,8.21,21.0000,67.0000
1982-09-19 19:00:00 UTC,2445232.291667,28.7317,-95.2428,0201,20.25,8.60,22.0000,67.0000
1982-09-19 19:30:00 UTC,2445232.312500,28.7317,-95.2428,0201,19.73,7.18,21.0000,70.0000
1982-09-19 20:00:00 UTC,2445232.333333,28.7317,-95.2428,0201,19.13,5.85,20.0000,73.0000
1982-09-19 20:30:00 UTC,2445232.354167,28.7317,-95.2428,0201,18.35,4.92,19.0000,75.0000
1982-09-19 21:00:00 UTC,2445232.375000,28.7317,-95.2428,0201,17.67,3.43,18.0000,79.0000
1982-09-19 21:30:00 UTC,2445232.395833,28.7317,-95.2428,0201,16.94,1.48,17.0000,85.0000
1982-09-19 22:00:00 UTC,2445232.416667,28.7317,-95.2428,0201,16.99,-0.59,17.0000,92.0000
1982-09-19 22:30:00 UTC,2445232.437500,28.7317,-95.2428,0201,17.61,-3.74,18.0000,102.0000
1982-09-19 23:00:00 UTC,2445232.458333,28.7317,-95.2428,0201,14.83,-5.99,16.0000,112.0000
1982-09-19 23:30:00 UTC,2445232.479167,28.7317,-95.2428,0201,11.33,-8.23,14.0000,126.0000
1982-09-20 00:00:00 UTC,2445232.500000,28.7317,-95.2428,0201,7.22,-9.58,12.0000,143.0000
1982-09-20 00:30:00 UTC,2445232.520833,28.7317,-95.2428,0201,4.69,-11.05,12.0000,157.0000
1982-09-20 01:00:00 UTC,2445232.541667,28.7317,-95.2428,0201,2.90,-11.64,12.0000,166.0000
1982-09-20 01:30:00 UTC,2445232.562500,28.7317,-95.2428,0201,2.49,-11.74,12.0000,168.0000
1982-09-20 02:00:00 UTC,2445232.583333,28.7317,-95.2428,0201,1.88,-11.85,12.0000,171.0000
1982-09-20 02:30:00 UTC,2445232.604167,28.7317,-95.2428,0201,0.38,-10.99,11.0000,178.0000
1982-09-20 03:00:00 UTC,2445232.625000,28.7317,-95.2428,0201,-1.56,-9.88,10.0000,189.0000
1982-09-20 03:30:00 UTC,2445232.645833,28.7317,-95.2428,0201,-3.18,-6.24,7.0000,207.0000
1982-09-20 04:00:00 UTC,2445232.666667,28.7317,-95.2428,0201,-3.69,-4.73,6.0000,218.0000
1982-09-20 04:30:00 UTC,2445232.687500,28.7317,-95.2428,0201,-2.65,-4.24,5.0000,212.0000
1982-09-20 05:00:00 UTC,2445232.708333,28.7317,-95.2428,0201,-2.29,-3.28,4.0000,215.0000
1982-09-20 05:30:00 UTC,2445232.729167,28.7317,-95.2428,0201,-3.50,-1.94,4.0000,241.0000
1982-09-20 06:00:00 UTC,2445232.750000,28.7317,-95.2428,0201,-3.98,-0.35,4.0000,265.0000
1982-09-20 06:30:00 UTC,2445232.770833,28.7317,-95.2428,0201,-3.91,0.83,4.0000,282.0000
1982-09-20 07:00:00 UTC,2445232.791667,28.7317,-95.2428,0201,-4.37,2.42,5.0000,299.0000
1982-09-20 07:30:00 UTC,2445232.812500,28.7317,-95.2428,0201,-4.09,4.39,6.0000,317.0000
1982-09-20 08:00:00 UTC,2445232.833333,28.7317,-95.2428,0201,-4.50,7.79,9.0000,330.0000
1982-09-20 08:30:00 UTC,2445232.854167,28.7317,-95.2428,0201,-4.10,11.28,12.0000,340.0000
1982-09-20 09:00:00 UTC,2445232.875000,28.7317,-95.2428,0201,-3.15,13.64,14.0000,347.0000
1982-09-20 09:30:00 UTC,2445232.895833,28.7317,-95.2428,0201,-2.19,13.83,14.0000,351.0000
1982-09-20 10:00:00 UTC,2445232.916667,28.7317,-95.2428,0201,-0.98,13.97,14.0000,356.0000
1982-09-20 10:30:00 UTC,2445232.937500,28.7317,-95.2428,0201,1.19,16.96,17.0000,4.0000
1982-09-20 11:00:00 UTC,2445232.958333,28.7317,-95.2428,0201,4.60,18.44,19.0000,14.0000
1982-09-20 11:30:00 UTC,2445232.979167,28.7317,-95.2428,0201,9.50,16.45,19.0000,30.0000
1982-09-20 12:00:00 UTC,2445233.000000,28.7317,-95.2428,0201,15.09,13.12,20.0000,49.0000
1982-09-20 12:30:00 UTC,2445233.020833,28.7317,-95.2428,0201,19.51,12.19,23.0000,58.0000
1982-09-20 13:00:00 UTC,2445233.041667,28.7317,-95.2428,0201,21.43,12.88,25.0000,59.0000
1982-09-20 13:30:00 UTC,2445233.062500,28.7317,-95.2428,0201,21.93,9.76,24.0000,66.0000
1982-09-20 14:00:00 UTC,2445233.083333,28.7317,-95.2428,0201,21.95,1.53,22.0000,86.0000
1982-09-20 14:30:00 UTC,2445233.104167,28.7317,-95.2428,0201,20.46,-4.72,21.0000,103.0000
1982-09-20 15:00:00 UTC,2445233.125000,28.7317,-95.2428,0201,17.49,-7.42,19.0000,113.0000
1982-09-20 15:30:00 UTC,2445233.145833,28.7317,-95.2428,0201,16.18,-7.89,18.0000,116.0000
1982-09-20 16:00:00 UTC,2445233.166667,28.7317,-95.2428,0201,17.49,-9.70,20.0000,119.0000
1982-09-20 16:30:00 UTC,2445233.187500,28.7317,-95.2428,0201,17.61,-11.44,21.0000,123.0000
1982-09-20 17:00:00 UTC,2445233.208333,28.7317,-95.2428,0201,17.41,-11.74,21.0000,124.0000
1982-09-20 17:30:00 UTC,2445233.229167,28.7317,-95.2428,0201,17.49,-9.70,20.0000,119.0000
1982-09-20 18:00:00 UTC,2445233.250000,28.7317,-95.2428,0201,17.62,-7.12,19.0000,112.0000
1982-09-20 18:30:00 UTC,2445233.270833,28.7317,-95.2428,0201,18.26,-5.24,19.0000,106.0000
1982-09-20 19:00:00 UTC,2445233.291667,28.7317,-95.2428,0201,19.75,-3.13,20.0000,99.0000
1982-09-20 19:30:00 UTC,2445233.312500,28.7317,-95.2428,0201,20.88,-2.20,21.0000,96.0000
1982-09-20 20:00:00 UTC,2445233.333333,28.7317,-95.2428,0201,20.99,-0.73,21.0000,92.0000
1982-09-20 20:30:00 UTC,2445233.354167,28.7317,-95.2428,0201,20.00,-0.35,20.0000,91.0000
1982-09-20 21:00:00 UTC,2445233.375000,28.7317,-95.2428,0201,19.95,-1.40,20.0000,94.0000
1982-09-20 21:30:00 UTC,2445233.395833,28.7317,-95.2428,0201,18.77,-2.97,19.0000,99.0000
1982-09-20 22:00:00 UTC,2445233.416667,28.7317,-95.2428,0201,18.35,-4.92,19.0000,105.0000
1982-09-20 22:30:00 UTC,2445233.437500,28.7317,-95.2428,0201,18.67,-7.17,20.0000,111.0000
1982-09-20 23:00:00 UTC,2445233.458333,28.7317,-95.2428,0201,19.73,-7.18,21.0000,110.0000
1982-09-20 23:30:00 UTC,2445233.479167,28.7317,-95.2428,0201,20.19,-5.79,21.0000,106.0000
1982-09-21 00:00:00 UTC,2445233.500000,28.7317,-95.2428,0201,17.12,-5.56,18.0000,108.0000
1982-09-21 00:30:00 UTC,2445233.520833,28.7317,-95.2428,0201,13.91,-5.62,15.0000,112.0000
1982-09-21 01:00:00 UTC,2445233.541667,28.7317,-95.2428,0201,11.88,-5.29,13.0000,114.0000
1982-09-21 01:30:00 UTC,2445233.562500,28.7317,-95.2428,0201,10.05,-4.47,11.0000,114.0000
1982-09-21 02:00:00 UTC,2445233.583333,28.7317,-95.2428,0201,8.40,-3.23,9.0000,111.0000
1982-09-21 02:30:00 UTC,2445233.604167,28.7317,-95.2428,0201,7.69,-2.21,8.0000,106.0000
1982-09-21 03:00:00 UTC,2445233.625000,28.7317,-95.2428,0201,7.56,-2.60,8.0000,109.0000
1982-09-21 03:30:00 UTC,2445233.645833,28.7317,-95.2428,0201,6.39,-2.85,7.0000,114.0000
1982-09-21 04:00:00 UTC,2445233.666667,28.7317,-95.2428,0201,7.42,-3.00,8.0000,112.0000
1982-09-21 04:30:00 UTC,2445233.687500,28.7317,-95.2428,0201,9.34,-3.58,10.0000,111.0000
1982-09-21 05:00:00 UTC,2445233.708333,28.7317,-95.2428,0201,11.05,-4.69,12.0000,113.0000
1982-09-21 05:30:00 UTC,2445233.729167,28.7317,-95.2428,0201,10.79,-5.26,12.0000,116.0000
1982-09-21 06:00:00 UTC,2445233.750000,28.7317,-95.2428,0201,11.02,-6.89,13.0000,122.0000
1982-09-21 06:30:00 UTC,2445233.770833,28.7317,-95.2428,0201,9.81,-8.53,13.0000,131.0000
1982-09-21 07:00:00 UTC,2445233.791667,28.7317,-95.2428,0201,9.64,-11.49,15.0000,140.0000
1982-09-21 07:30:00 UTC,2445233.812500,28.7317,-95.2428,0201,9.85,-12.61,16.0000,142.0000
1982-09-21 08:00:00 UTC,2445233.833333,28.7317,-95.2428,0201,10.07,-12.43,16.0000,141.0000
1982-09-21 08:30:00 UTC,2445233.854167,28.7317,-95.2428,0201,10.70,-13.21,17.0000,141.0000